Location: Pabrico
(37.5827°N, 122.0063°W)
Time: 19:56:10
(UTC+00:00)

Cosmos 1048 Rocket - Visible Passes

Search period start: 12 July 2024 00:00
Search period end: 22 July 2024 00:00
Orbit: 741 x 789 km, 74.0° (Epoch: 12 July)

Date Brightness Start Highest point End Pass type
(mag) Time Alt. Az. Time Alt. Az. Time Alt. Az.
12 Jul 5.0 05:18:15 10° N 05:23:03 33° ENE 05:24:53 26° ESE visible
12 Jul 5.4 07:00:24 10° NW 07:04:53 28° W 07:05:05 28° WSW visible
13 Jul 5.7 04:40:58 10° NNE 04:44:48 20° ENE 04:47:40 13° E visible
13 Jul 4.5 06:21:55 10° NNW 06:27:04 50° WSW 06:27:52 46° SW visible
14 Jul 6.2 04:04:40 10° NE 04:06:25 11° NE 04:08:10 10° ENE visible
14 Jul 4.0 05:43:46 10° NNW 05:49:09 89° WSW 05:50:41 48° SSE visible
15 Jul 4.4 05:05:54 10° N 05:11:07 51° ENE 05:13:32 30° SE visible
15 Jul 6.1 06:49:12 10° NW 06:52:37 17° W 06:53:44 16° WSW visible
16 Jul 5.1 04:28:17 10° N 04:32:58 30° ENE 04:36:25 16° ESE visible
16 Jul 5.4 06:10:13 10° NW 06:14:53 31° W 06:16:38 25° SW visible
17 Jul 5.8 03:51:06 10° NNE 03:54:41 18° ENE 03:58:15 10° ESE visible
17 Jul 4.5 05:31:48 10° NNW 05:37:02 56° WSW 05:39:33 30° SSW visible
18 Jul 4.0 04:53:43 10° NNW 04:59:06 82° ENE 05:02:31 23° SSE visible
18 Jul 6.7 06:39:42 10° W 06:40:16 10° W 06:40:50 10° W visible
19 Jul 4.5 04:15:53 10° N 04:21:02 46° ENE 04:25:31 13° SE visible
19 Jul 6.1 05:58:52 10° NW 06:02:37 20° W 06:05:45 12° SW visible
20 Jul 5.4 05:20:02 10° NW 05:24:51 35° W 05:28:48 14° SSW visible
21 Jul 4.4 04:41:42 10° NNW 04:46:59 63° WSW 04:51:55 12° S visible
